Time,TemperatureF,DewpointF,PressureIn,WindDirection,WindDirectionDegrees,WindSpeedMPH,WindSpeedGustMPH,Humidity,HourlyPrecipIn,Conditions,Clouds,dailyrainin,SoftwareType,DateUTC
2013-04-17 00:02:00,49.0,46.0,-100.00,SW,220,13.0,16.0,89,-99.99,,,-99.99,,2013-04-17 04:02:00,
2013-04-17 00:12:00,49.0,46.0,-100.00,SW,220,13.0,16.0,89,-99.99,,,-99.99,,2013-04-17 04:12:00,
2013-04-17 00:22:00,49.0,46.0,-100.00,SW,220,13.0,16.0,90,-99.99,,,-99.99,,2013-04-17 04:22:00,
2013-04-17 00:32:00,49.0,46.0,-100.00,SW,220,13.0,13.0,90,-99.99,,,-99.99,,2013-04-17 04:32:00,
2013-04-17 00:42:00,49.0,46.0,-100.00,SW,220,13.0,13.0,90,-99.99,,,-99.99,,2013-04-17 04:42:00,
2013-04-17 00:52:00,49.0,46.0,-100.00,SW,220,13.0,13.0,90,-99.99,,,-99.99,,2013-04-17 04:52:00,
2013-04-17 01:02:00,49.0,47.0,-100.00,SW,220,11.0,13.0,91,-99.99,,,-99.99,,2013-04-17 05:02:00,
2013-04-17 01:11:00,49.0,47.0,-100.00,SW,220,11.0,13.0,91,-99.99,,,-99.99,,2013-04-17 05:11:00,
2013-04-17 01:21:00,49.0,47.0,-100.00,SW,220,9.0,11.0,92,-99.99,,,-99.99,,2013-04-17 05:21:00,
2013-04-17 01:32:00,49.0,47.0,-100.00,SW,220,9.0,11.0,92,-99.99,,,-99.99,,2013-04-17 05:32:00,
2013-04-17 01:42:00,49.0,47.0,-100.00,SW,220,9.0,11.0,92,-99.99,,,-99.99,,2013-04-17 05:42:00,
2013-04-17 01:52:00,49.0,47.0,-100.00,SW,220,9.0,11.0,92,-99.99,,,-99.99,,2013-04-17 05:52:00,
2013-04-17 02:01:00,48.0,46.0,-100.00,WSW,250,4.0,4.0,92,-99.99,,,-99.99,,2013-04-17 06:01:00,
2013-04-17 02:11:00,48.0,46.0,-100.00,WSW,250,4.0,4.0,92,-99.99,,,-99.99,,2013-04-17 06:11:00,
2013-04-17 02:22:00,49.0,47.0,-100.00,West,280,4.0,4.0,92,-99.99,,,-99.99,,2013-04-17 06:22:00,
2013-04-17 02:31:00,49.0,47.0,-100.00,West,280,4.0,4.0,92,-99.99,,,-99.99,,2013-04-17 06:31:00,
2013-04-17 02:42:00,48.0,46.0,-100.00,NW,310,4.0,4.0,92,-99.99,,,-99.99,,2013-04-17 06:42:00,
2013-04-17 02:51:00,48.0,46.0,-100.00,NW,310,4.0,4.0,92,-99.99,,,-99.99,,2013-04-17 06:51:00,
2013-04-17 03:01:00,48.0,46.0,-100.00,WSW,250,4.0,7.0,92,-99.99,,,-99.99,,2013-04-17 07:01:00,
2013-04-17 03:11:00,48.0,46.0,-100.00,WSW,250,4.0,7.0,92,-99.99,,,-99.99,,2013-04-17 07:11:00,
2013-04-17 03:21:00,47.0,46.0,-100.00,West,260,4.0,4.0,93,-99.99,,,-99.99,,2013-04-17 07:21:00,
2013-04-17 03:31:00,48.0,46.0,-100.00,West,280,4.0,4.0,93,-99.99,,,-99.99,,2013-04-17 07:31:00,
2013-04-17 03:42:00,48.0,46.0,-100.00,West,280,4.0,4.0,93,-99.99,,,-99.99,,2013-04-17 07:42:00,
2013-04-17 03:52:00,48.0,46.0,-100.00,West,280,4.0,4.0,93,-99.99,,,-99.99,,2013-04-17 07:52:00,
2013-04-17 04:01:00,48.0,46.0,-100.00,SW,230,4.0,7.0,93,-99.99,,,-99.99,,2013-04-17 08:01:00,
2013-04-17 04:11:00,48.0,46.0,-100.00,SW,230,4.0,7.0,93,-99.99,,,-99.99,,2013-04-17 08:11:00,
2013-04-17 04:21:00,48.0,46.0,-100.00,WSW,250,4.0,7.0,94,-99.99,,,-99.99,,2013-04-17 08:21:00,
2013-04-17 04:32:00,48.0,46.0,-100.00,WSW,250,4.0,7.0,94,-99.99,,,-99.99,,2013-04-17 08:32:00,
2013-04-17 05:11:00,48.0,47.0,-100.00,NNW,330,9.0,13.0,94,-99.99,,,-99.99,,2013-04-17 09:11:00,
2013-04-17 05:21:00,48.0,47.0,-100.00,NNW,330,9.0,13.0,94,-99.99,,,-99.99,,2013-04-17 09:21:00,
2013-04-17 05:32:00,48.0,46.0,-100.00,NW,320,4.0,7.0,94,-99.99,,,-99.99,,2013-04-17 09:32:00,
2013-04-17 05:42:00,48.0,46.0,-100.00,NW,320,4.0,7.0,94,-99.99,,,-99.99,,2013-04-17 09:42:00,
2013-04-17 05:52:00,48.0,46.0,-100.00,NW,320,4.0,7.0,94,-99.99,,,-99.99,,2013-04-17 09:52:00,
2013-04-17 06:02:00,48.0,47.0,-100.00,NW,320,7.0,9.0,94,-99.99,,,-99.99,,2013-04-17 10:02:00,
2013-04-17 06:12:00,48.0,47.0,-100.00,NW,320,7.0,9.0,94,-99.99,,,-99.99,,2013-04-17 10:12:00,
2013-04-17 06:22:00,49.0,48.0,-100.00,NW,320,4.0,7.0,95,-99.99,,,-99.99,,2013-04-17 10:22:00,
2013-04-17 06:32:00,48.0,47.0,-100.00,NNW,330,4.0,7.0,95,-99.99,,,-99.99,,2013-04-17 10:32:00,
2013-04-17 06:42:00,48.0,47.0,-100.00,NNW,330,4.0,7.0,95,-99.99,,,-99.99,,2013-04-17 10:42:00,
2013-04-17 06:52:00,48.0,47.0,-100.00,NNW,330,4.0,7.0,95,-99.99,,,-99.99,,2013-04-17 10:52:00,
2013-04-17 07:00:00,48.0,44.0,-100.00,North,360,4.0,7.0,87,-99.99,,,-99.99,,2013-04-17 11:00:00,
2013-04-17 07:02:00,48.0,45.0,-100.00,NNW,340,7.0,9.0,90,-99.99,,,-99.99,,2013-04-17 11:02:00,
2013-04-17 07:11:00,48.0,45.0,-100.00,NNW,340,7.0,9.0,90,-99.99,,,-99.99,,2013-04-17 11:11:00,
2013-04-17 07:21:00,48.0,44.0,-100.00,North,360,4.0,7.0,87,-99.99,,,-99.99,,2013-04-17 11:21:00,
2013-04-17 07:31:00,48.0,44.0,-100.00,North,360,4.0,7.0,87,-99.99,,,-99.99,,2013-04-17 11:31:00,
2013-04-17 07:42:00,48.0,44.0,-100.00,North,360,4.0,7.0,87,-99.99,,,-99.99,,2013-04-17 11:42:00,
2013-04-17 07:51:00,48.0,44.0,-100.00,North,360,4.0,7.0,87,-99.99,,,-99.99,,2013-04-17 11:51:00,
2013-04-17 08:12:00,49.0,42.0,-100.00,NNW,340,4.0,7.0,78,-99.99,,,-99.99,,2013-04-17 12:12:00,
2013-04-17 08:22:00,49.0,42.0,-100.00,NNW,340,4.0,7.0,78,-99.99,,,-99.99,,2013-04-17 12:22:00,
2013-04-17 08:32:00,49.0,42.0,-100.00,NNW,340,4.0,7.0,78,-99.99,,,-99.99,,2013-04-17 12:32:00,
2013-04-17 08:42:00,48.0,42.0,-100.00,NW,320,4.0,7.0,78,-99.99,,,-99.99,,2013-04-17 12:42:00,
2013-04-17 08:51:00,48.0,42.0,-100.00,NW,320,4.0,7.0,78,-99.99,,,-99.99,,2013-04-17 12:51:00,
2013-04-17 09:01:00,49.0,41.0,-100.00,NW,310,7.0,7.0,74,-99.99,,,-99.99,,2013-04-17 13:01:00,
2013-04-17 09:11:00,49.0,41.0,-100.00,NW,310,7.0,7.0,74,-99.99,,,-99.99,,2013-04-17 13:11:00,
2013-04-17 09:21:00,49.0,41.0,-100.00,NW,320,7.0,9.0,75,-99.99,,,-99.99,,2013-04-17 13:21:00,
2013-04-17 09:31:00,49.0,41.0,-100.00,NW,320,7.0,9.0,75,-99.99,,,-99.99,,2013-04-17 13:31:00,
2013-04-17 09:41:00,49.0,40.0,-100.00,NW,320,7.0,9.0,72,-99.99,,,-99.99,,2013-04-17 13:41:00,
2013-04-17 09:51:00,49.0,40.0,-100.00,NW,320,7.0,9.0,72,-99.99,,,-99.99,,2013-04-17 13:51:00,
2013-04-17 10:00:00,50.0,40.0,-100.00,NW,310,7.0,9.0,68,-99.99,,,-99.99,,2013-04-17 14:00:00,
2013-04-17 10:01:00,48.0,40.0,-100.00,NW,320,7.0,9.0,73,-99.99,,,-99.99,,2013-04-17 14:01:00,
2013-04-17 10:11:00,48.0,40.0,-100.00,NW,320,7.0,9.0,73,-99.99,,,-99.99,,2013-04-17 14:11:00,
2013-04-17 10:32:00,50.0,40.0,-100.00,NW,310,7.0,9.0,68,-99.99,,,-99.99,,2013-04-17 14:32:00,
2013-04-17 10:41:00,50.0,40.0,-100.00,NW,310,7.0,9.0,68,-99.99,,,-99.99,,2013-04-17 14:41:00,
2013-04-17 10:52:00,50.0,40.0,-100.00,NW,310,7.0,9.0,68,-99.99,,,-99.99,,2013-04-17 14:52:00,
2013-04-17 11:11:00,49.0,40.0,-100.00,WNW,290,7.0,9.0,71,-99.99,,,-99.99,,2013-04-17 15:11:00,
2013-04-17 11:21:00,49.0,40.0,-100.00,WNW,290,7.0,9.0,71,-99.99,,,-99.99,,2013-04-17 15:21:00,
2013-04-17 11:33:00,49.0,40.0,-100.00,WNW,290,7.0,9.0,71,-99.99,,,-99.99,,2013-04-17 15:33:00,
2013-04-17 11:42:00,49.0,41.0,-100.00,WNW,290,7.0,9.0,74,-99.99,,,-99.99,,2013-04-17 15:42:00,
2013-04-17 11:52:00,49.0,41.0,-100.00,WNW,290,7.0,9.0,74,-99.99,,,-99.99,,2013-04-17 15:52:00,
2013-04-17 12:03:00,51.0,40.0,-100.00,NNW,330,4.0,7.0,67,-99.99,,,-99.99,,2013-04-17 16:03:00,
2013-04-17 12:12:00,51.0,40.0,-100.00,NNW,330,4.0,7.0,67,-99.99,,,-99.99,,2013-04-17 16:12:00,
2013-04-17 12:22:00,51.0,40.0,-100.00,NNW,330,7.0,9.0,65,-99.99,,,-99.99,,2013-04-17 16:22:00,
2013-04-17 12:32:00,51.0,40.0,-100.00,NNW,330,7.0,9.0,65,-99.99,,,-99.99,,2013-04-17 16:32:00,
2013-04-17 12:41:00,51.0,40.0,-100.00,NNW,330,7.0,9.0,65,-99.99,,,-99.99,,2013-04-17 16:41:00,
2013-04-17 12:52:00,51.0,40.0,-100.00,NNW,330,7.0,9.0,65,-99.99,,,-99.99,,2013-04-17 16:52:00,
2013-04-17 13:02:00,52.0,40.0,-100.00,NW,310,7.0,9.0,63,-99.99,,,-99.99,,2013-04-17 17:02:00,
2013-04-17 13:11:00,52.0,40.0,-100.00,NW,310,7.0,9.0,63,-99.99,,,-99.99,,2013-04-17 17:11:00,
2013-04-17 13:22:00,52.0,40.0,-100.00,NNW,330,4.0,7.0,63,-99.99,,,-99.99,,2013-04-17 17:22:00,
2013-04-17 13:32:00,52.0,40.0,-100.00,NNW,330,4.0,7.0,63,-99.99,,,-99.99,,2013-04-17 17:32:00,
2013-04-17 13:42:00,52.0,40.0,-100.00,NNW,330,4.0,7.0,63,-99.99,,,-99.99,,2013-04-17 17:42:00,
2013-04-17 13:51:00,52.0,40.0,-100.00,NNW,330,4.0,7.0,63,-99.99,,,-99.99,,2013-04-17 17:51:00,
2013-04-17 14:11:00,52.0,42.0,-100.00,WNW,290,4.0,7.0,67,-99.99,,,-99.99,,2013-04-17 18:11:00,
2013-04-17 14:21:00,52.0,42.0,-100.00,WNW,290,4.0,7.0,67,-99.99,,,-99.99,,2013-04-17 18:21:00,
2013-04-17 14:41:00,53.0,40.0,-100.00,West,270,7.0,9.0,60,-99.99,,,-99.99,,2013-04-17 18:41:00,
2013-04-17 14:51:00,53.0,40.0,-100.00,West,270,7.0,9.0,60,-99.99,,,-99.99,,2013-04-17 18:51:00,
2013-04-17 15:01:00,54.0,39.0,-100.00,West,270,7.0,9.0,56,-99.99,,,-99.99,,2013-04-17 19:01:00,
2013-04-17 15:11:00,54.0,39.0,-100.00,West,270,7.0,9.0,56,-99.99,,,-99.99,,2013-04-17 19:11:00,
2013-04-17 15:21:00,54.0,40.0,-100.00,West,280,7.0,7.0,59,-99.99,,,-99.99,,2013-04-17 19:21:00,
2013-04-17 15:31:00,54.0,40.0,-100.00,West,280,7.0,7.0,59,-99.99,,,-99.99,,2013-04-17 19:31:00,
2013-04-17 15:41:00,53.0,41.0,-100.00,West,260,7.0,9.0,64,-99.99,,,-99.99,,2013-04-17 19:41:00,
2013-04-17 15:52:00,53.0,41.0,-100.00,West,260,7.0,9.0,64,-99.99,,,-99.99,,2013-04-17 19:52:00,
2013-04-17 16:01:00,52.0,42.0,-100.00,SW,230,9.0,9.0,68,-99.99,,,-99.99,,2013-04-17 20:01:00,
2013-04-17 16:12:00,52.0,42.0,-100.00,SW,230,9.0,9.0,68,-99.99,,,-99.99,,2013-04-17 20:12:00,
2013-04-17 16:21:00,51.0,42.0,-100.00,WSW,240,9.0,9.0,71,-99.99,,,-99.99,,2013-04-17 20:21:00,
2013-04-17 16:30:00,54.0,39.0,-100.00,WSW,240,11.0,11.0,57,-99.99,,,-99.99,,2013-04-17 20:30:00,
2013-04-17 16:31:00,51.0,42.0,-100.00,WSW,240,9.0,9.0,71,-99.99,,,-99.99,,2013-04-17 20:31:00,
2013-04-17 16:41:00,53.0,41.0,-100.00,West,260,11.0,11.0,63,-99.99,,,-99.99,,2013-04-17 20:41:00,
2013-04-17 16:52:00,53.0,41.0,-100.00,West,260,11.0,11.0,63,-99.99,,,-99.99,,2013-04-17 20:52:00,
2013-04-17 17:02:00,54.0,39.0,-100.00,WSW,240,11.0,11.0,57,-99.99,,,-99.99,,2013-04-17 21:02:00,
2013-04-17 17:11:00,54.0,39.0,-100.00,WSW,240,11.0,11.0,57,-99.99,,,-99.99,,2013-04-17 21:11:00,
2013-04-17 17:21:00,54.0,39.0,-100.00,WSW,240,11.0,11.0,57,-99.99,,,-99.99,,2013-04-17 21:21:00,
2013-04-17 17:30:00,52.0,41.0,-100.00,SW,230,9.0,11.0,66,-99.99,,,-99.99,,2013-04-17 21:30:00,
2013-04-17 17:42:00,51.0,41.0,-100.00,SW,220,9.0,9.0,67,-99.99,,,-99.99,,2013-04-17 21:42:00,
2013-04-17 17:53:00,51.0,41.0,-100.00,SW,220,9.0,9.0,67,-99.99,,,-99.99,,2013-04-17 21:53:00,
2013-04-17 18:02:00,52.0,41.0,-100.00,SW,230,9.0,11.0,64,-99.99,,,-99.99,,2013-04-17 22:02:00,
2013-04-17 18:12:00,52.0,41.0,-100.00,SW,230,9.0,11.0,64,-99.99,,,-99.99,,2013-04-17 22:12:00,
2013-04-17 18:52:00,54.0,40.0,-100.00,SW,230,9.0,9.0,58,-99.99,,,-99.99,,2013-04-17 22:52:00,
2013-04-17 19:12:00,54.0,40.0,-100.00,SW,230,9.0,9.0,58,-99.99,,,-99.99,,2013-04-17 23:12:00,
2013-04-17 19:22:00,53.0,41.0,-100.00,WSW,240,9.0,11.0,62,-99.99,,,-99.99,,2013-04-17 23:22:00,
2013-04-17 19:32:00,53.0,42.0,-100.00,WSW,240,11.0,11.0,67,-99.99,,,-99.99,,2013-04-17 23:32:00,
2013-04-17 19:42:00,53.0,42.0,-100.00,WSW,240,11.0,11.0,67,-99.99,,,-99.99,,2013-04-17 23:42:00,
2013-04-17 19:51:00,53.0,42.0,-100.00,WSW,240,11.0,11.0,67,-99.99,,,-99.99,,2013-04-17 23:51:00,
2013-04-17 20:12:00,52.0,42.0,-100.00,West,260,9.0,11.0,69,-99.99,,,-99.99,,2013-04-18 00:12:00,
2013-04-17 20:21:00,52.0,42.0,-100.00,West,260,9.0,11.0,69,-99.99,,,-99.99,,2013-04-18 00:21:00,
2013-04-17 20:42:00,52.0,42.0,-100.00,West,270,7.0,9.0,67,-99.99,,,-99.99,,2013-04-18 00:42:00,
2013-04-17 20:51:00,52.0,42.0,-100.00,West,270,7.0,9.0,67,-99.99,,,-99.99,,2013-04-18 00:51:00,
2013-04-17 21:01:00,52.0,42.0,-100.00,West,270,4.0,4.0,69,-99.99,,,-99.99,,2013-04-18 01:01:00,
2013-04-17 21:21:00,53.0,42.0,-100.00,WNW,300,4.0,7.0,66,-99.99,,,-99.99,,2013-04-18 01:21:00,
2013-04-17 21:32:00,52.0,42.0,-100.00,NNW,330,4.0,7.0,67,-99.99,,,-99.99,,2013-04-18 01:32:00,
2013-04-17 21:41:00,52.0,42.0,-100.00,NNW,330,4.0,7.0,67,-99.99,,,-99.99,,2013-04-18 01:41:00,
2013-04-17 21:52:00,52.0,42.0,-100.00,NNW,330,4.0,7.0,67,-99.99,,,-99.99,,2013-04-18 01:52:00,
2013-04-17 22:00:00,50.0,43.0,-100.00,SSE,160,13.0,18.0,78,-99.99,,,-99.99,,2013-04-18 02:00:00,
2013-04-17 22:01:00,50.0,43.0,-100.00,SE,130,9.0,11.0,77,-99.99,,,-99.99,,2013-04-18 02:01:00,
2013-04-17 22:11:00,50.0,43.0,-100.00,SE,130,9.0,11.0,77,-99.99,,,-99.99,,2013-04-18 02:11:00,
2013-04-17 22:22:00,49.0,44.0,-100.00,SE,140,9.0,11.0,81,-99.99,,,-99.99,,2013-04-18 02:22:00,
2013-04-17 22:31:00,49.0,44.0,-100.00,SE,140,9.0,11.0,81,-99.99,,,-99.99,,2013-04-18 02:31:00,
2013-04-17 23:11:00,49.0,44.0,-100.00,SSE,160,9.0,13.0,82,-99.99,,,-99.99,,2013-04-18 03:11:00,
2013-04-17 23:21:00,49.0,44.0,-100.00,SSE,160,9.0,13.0,82,-99.99,,,-99.99,,2013-04-18 03:21:00,
2013-04-17 23:33:00,49.0,44.0,-100.00,SSE,160,9.0,13.0,82,-99.99,,,-99.99,,2013-04-18 03:33:00,
2013-04-17 23:42:00,47.0,43.0,-100.00,East,100,9.0,11.0,85,-99.99,,,-99.99,,2013-04-18 03:42:00,
2013-04-17 23:53:00,47.0,43.0,-100.00,East,100,9.0,11.0,85,-99.99,,,-99.99,,2013-04-18 03:53:00,